FW3304 Weather Reports


Display with metric or nautical units.
time (UTC)temp
F
wind
direction
speed
MPH
gust
MPH
rain 1hr
in
rain 24hr
in
rain mn
in
humidity
%
barometer
mb
20260901213017 93 126 3.0 10.0 0.00 0.00 0.00 65 1018.2
20260901211516 92 129 3.0 6.0 0.00 0.00 0.00 67 1015.5
20260901210117 92 137 3.0 8.0 0.00 0.00 0.00 67 1015.7
20260901210017 92 82 5.0 10.0 0.00 0.00 0.00 69 1018.4
20260901204514 92 75 6.0 9.0 0.00 0.00 0.00 67 1015.7
20260901203016 93 120 4.0 10.0 0.00 0.00 0.00 65 1018.5
20260901203011 93 93 4.0 8.0 0.00 0.00 0.00 65 1015.8
20260901201509 93 127 2.0 9.0 0.00 0.00 0.00 64 1015.8
20260901200021 94 184 2.0 7.0 0.00 0.00 0.00 58 1018.8
20260901200008 94 171 1.0 5.0 0.00 0.00 0.00 58 1016.0
20260901194504 94 192 3.0 6.0 0.00 0.00 0.00 59 1016.1
20260901193037 93 196 2.0 7.0 0.00 0.00 0.00 61 1019.0
20260901193002 93 200 3.0 5.0 0.00 0.00 0.00 61 1016.2
20260901191502 93 200 3.0 5.0 0.00 0.00 0.00 60 1016.4
20260901190016 93 134 2.0 6.0 0.00 0.00 0.00 64 1019.3
20260901184602 92 134 1.0 4.0 0.00 0.00 0.00 64 1016.8
20260901183103 92 347 0.0 3.0 0.00 0.00 0.00 64 1016.9
20260901183037 92 340 1.0 6.0 0.00 0.00 0.00 63 1019.6
20260901181558 93 347 2.0 4.0 0.00 0.00 0.00 61 1017.0
20260901180057 93 342 2.0 6.0 0.00 0.00 0.00 63 1017.3
20260901180016 93 8 2.0 8.0 0.00 0.00 0.00 62 1020.1
20260901174559 93 336 4.0 6.0 0.00 0.00 0.00 64 1017.3
20260901173053 92 105 2.0 6.0 0.00 0.00 0.00 67 1017.5
20260901173016 92 187 3.0 9.0 0.00 0.00 0.00 66 1020.2
20260901171550 92 196 4.0 6.0 0.00 0.00 0.00 65 1017.6
20260901170045 91 217 1.0 6.0 0.00 0.00 0.00 67 1017.9
20260901170016 91 239 3.0 9.0 0.00 0.00 0.00 67 1020.7
20260901164551 90 333 4.0 8.0 0.00 0.00 0.00 67 1018.1
20260901163039 90 226 2.0 7.0 0.00 0.00 0.00 69 1018.2
20260901163021 90 236 3.0 9.0 0.00 0.00 0.00 69 1020.9
20260901161546 90 245 3.0 8.0 0.00 0.00 0.00 71 1018.2
20260901160036 89 229 3.0 8.0 0.00 0.00 0.00 71 1021.0
20260901160031 89 202 3.0 6.0 0.00 0.00 0.00 70 1018.3
20260901154530 88 290 3.0 7.0 0.00 0.00 0.00 72 1018.3
20260901153040 88 259 3.0 7.0 0.00 0.00 0.00 73 1018.3
20260901153016 88 218 3.0 9.0 0.00 0.00 0.00 74 1021.0
20260901151524 87 206 2.0 7.0 0.00 0.00 0.00 77 1018.3
20260901150020 86 234 3.0 7.0 0.00 0.00 0.00 77 1018.3
20260901150016 86 209 4.0 9.0 0.00 0.00 0.00 77 1021.0
20260901144523 85 241 2.0 7.0 0.00 0.00 0.00 78 1018.3
20260901143036 84 227 3.0 8.0 0.00 0.00 0.00 79 1021.0
20260901143014 84 214 5.0 8.0 0.00 0.00 0.00 79 1018.3
20260901141509 83 221 3.0 8.0 0.00 0.00 0.00 81 1018.5
20260901140016 82 216 2.0 7.0 0.00 0.00 0.00 85 1021.2
20260901140003 82 208 4.0 7.0 0.00 0.00 0.00 85 1018.5
20260901134600 80 218 2.0 5.0 0.00 0.00 0.00 89 1018.5
20260901133057 79 217 1.0 5.0 0.00 0.00 0.00 90 1018.5
20260901133016 79 211 1.0 5.0 0.00 0.00 0.00 90 1021.1
20260901131553 78 209 2.0 4.0 0.00 0.00 0.00 92 1018.5
20260901130049 77 286 0.0 0.0 0.00 0.00 0.00 95 1018.4
20260901130021 77 0.0 0.0 0.00 0.00 0.00 96 1020.9
20260901124546 76 338 0.0 0.0 0.00 0.00 0.00 98 1018.3
20260901123056 74 0.0 0.0 0.00 0.00 0.00 99 1020.8
20260901123043 74 150 0.0 0.0 0.00 0.00 0.00 99 1018.2
20260901121540 73 150 0.0 0.0 0.00 0.00 0.00 99 1018.1
20260901120037 72 150 0.0 0.0 0.00 0.00 0.00 99 1017.9
20260901120015 72 0.0 0.0 0.00 0.00 0.00 99 1020.5
20260901114535 72 150 0.0 0.0 0.00 0.00 0.00 98 1017.7
20260901113034 72 150 0.0 0.0 0.00 0.00 0.00 98 1017.6
20260901113015 72 0.0 0.0 0.00 0.00 0.00 98 1020.1
20260901111531 72 150 0.0 0.0 0.00 0.00 0.00 98 1017.5
20260901110033 72 150 0.0 0.0 0.00 0.00 0.00 98 1017.3
20260901110015 72 0.0 0.0 0.00 0.00 0.00 98 1019.9
20260901104535 72 150 0.0 0.0 0.00 0.00 0.00 98 1017.2
20260901103024 72 150 0.0 0.0 0.00 0.00 0.00 98 1017.1
20260901103016 72 0.0 0.0 0.00 0.00 0.00 98 1019.6
20260901101521 73 150 0.0 0.0 0.00 0.00 0.00 98 1016.9
20260901100019 73 150 0.0 0.0 0.00 0.00 0.00 97 1017.0
20260901100015 73 0.0 0.0 0.00 0.00 0.00 97 1019.7
20260901094518 73 150 0.0 0.0 0.00 0.00 0.00 98 1016.9
20260901093020 73 0.0 0.0 0.00 0.00 0.00 98 1019.6
20260901093016 73 150 0.0 0.0 0.00 0.00 0.00 98 1016.8
20260901091518 73 150 0.0 0.0 0.00 0.00 0.00 98 1016.7
20260901090018 73 150 0.0 0.0 0.00 0.00 0.00 98 1016.5
20260901090016 73 0.0 0.0 0.00 0.00 0.00 98 1019.1
20260901084514 73 150 0.0 0.0 0.00 0.00 0.00 98 1016.5
20260901083018 73 150 0.0 0.0 0.00 0.00 0.00 98 1016.4
20260901083015 73 0.0 0.0 0.00 0.00 0.00 98 1019.0
20260901081513 73 150 0.0 0.0 0.00 0.00 0.00 97 1016.4
20260901080015 73 0.0 0.0 0.00 0.00 0.00 97 1019.1
20260901080013 73 150 0.0 0.0 0.00 0.00 0.00 97 1016.4
20260901074511 73 150 0.0 0.0 0.00 0.00 0.00 97 1016.4
20260901073035 73 0.0 0.0 0.00 0.00 0.00 97 1019.1
20260901073010 73 150 0.0 0.0 0.00 0.00 0.00 97 1016.5
20260901071509 73 150 0.0 0.0 0.00 0.00 0.00 97 1016.4
20260901070015 73 0.0 0.0 0.00 0.00 0.00 97 1019.0
20260901070008 73 150 0.0 0.0 0.00 0.00 0.00 97 1016.4
20260901064508 73 150 0.0 0.0 0.00 0.00 0.00 97 1016.3
20260901063016 73 150 0.0 0.0 0.00 0.00 0.00 97 1016.4
20260901061505 74 150 0.0 0.0 0.00 0.00 0.00 96 1016.5
20260901060020 74 0.0 0.0 0.00 0.00 0.00 96 1019.0
20260901060003 74 150 0.0 0.0 0.00 0.00 0.00 96 1016.4
20260901054503 74 150 0.0 0.0 0.00 0.00 0.00 97 1016.6
20260901053015 74 0.0 0.0 0.00 0.00 0.00 96 1019.2
20260901053001 74 150 0.0 0.0 0.00 0.00 0.00 96 1016.6
20260901051613 74 150 0.0 0.0 0.00 0.00 0.00 96 1016.6
20260901050057 74 150 0.0 0.0 0.00 0.00 0.00 96 1016.6
20260901050015 74 0.0 0.0 0.00 0.00 0.00 96 1019.2
20260901044558 74 150 0.0 0.0 0.00 0.00 0.00 95 1016.6
20260901043101 75 150 0.0 0.0 0.00 0.00 0.00 95 1016.5
20260901043015 75 0.0 0.0 0.00 0.00 0.00 95 1019.2
20260901041608 75 150 0.0 0.0 0.00 0.00 0.00 95 1016.7
20260901040057 75 150 0.0 0.0 0.00 0.00 0.00 95 1016.7
20260901040016 75 0.0 0.0 0.00 0.00 0.00 95 1019.3
20260901034554 75 150 0.0 0.0 0.00 0.00 0.00 94 1016.7
20260901033057 76 150 0.0 0.0 0.00 0.00 0.00 94 1016.7
20260901033036 76 0.0 0.0 0.00 0.00 0.00 94 1019.3
20260901031558 76 150 0.0 0.0 0.00 0.00 0.00 94 1016.6
20260901030053 76 150 0.0 0.0 0.00 0.00 0.00 93 1016.6
20260901030017 76 0.0 0.0 0.00 0.00 0.00 93 1019.1
20260901024552 77 150 0.0 0.0 0.00 0.00 0.00 93 1016.5
20260901023051 77 150 0.0 0.0 0.00 0.00 0.00 92 1016.4
20260901023020 77 0.0 0.0 0.00 0.00 0.00 92 1018.9
20260901021551 78 150 0.0 0.0 0.00 0.00 0.00 91 1016.2
20260901020050 78 150 0.0 0.0 0.00 0.00 0.00 90 1016.1
20260901020016 78 0.0 0.0 0.00 0.00 0.00 90 1018.5
20260901014548 79 150 0.0 0.0 0.00 0.00 0.00 89 1015.9
20260901013051 80 150 0.0 0.0 0.00 0.00 0.00 88 1015.7
20260901013016 80 0.0 0.0 0.00 0.00 0.00 88 1018.1
20260901011546 81 150 0.0 0.0 0.00 0.00 0.00 87 1015.6
20260901010049 82 150 0.0 0.0 0.00 0.00 0.00 85 1015.3
20260901010016 82 0.0 4.0 0.00 0.00 0.00 84 1017.8
20260901004545 83 150 0.0 0.0 0.00 0.00 0.00 83 1015.3
20260901003045 84 150 0.0 1.0 0.00 0.00 0.00 81 1015.3
20260901003015 84 152 0.0 4.0 0.00 0.00 0.00 81 1017.9
20260901001554 85 150 0.0 2.0 0.00 0.00 0.00 78 1015.4
20260901000044 87 150 1.0 3.0 0.00 0.00 0.00 76 1015.5
20260901000015 87 152 1.0 6.0 0.00 0.00 0.00 76 1018.1
20260831234557 88 150 1.0 4.0 0.00 0.00 0.00 74 1015.5
20260831233048 89 150 2.0 5.0 0.00 0.00 0.00 73 1015.6
20260831233015 89 151 3.0 7.0 0.00 0.00 0.00 72 1018.3
20260831231539 89 150 3.0 5.0 0.00 0.00 0.00 70 1015.8
20260831230040 90 151 3.0 7.0 0.00 0.00 0.00 68 1018.7
20260831224537 91 158 5.0 6.0 0.00 0.00 0.00 66 1015.9
20260831223036 91 148 2.0 5.0 0.00 0.00 0.00 63 1016.1
20260831221537 92 168 2.0 5.0 0.00 0.00 0.00 63 1016.1
20260831220035 92 155 2.0 6.0 0.00 0.00 0.00 63 1016.2
20260831220015 92 174 3.0 8.0 0.00 0.00 0.00 63 1018.9
20260831214534 92 160 2.0 6.0 0.00 0.00 0.00 63 1016.2